This demonstration page uses our WeatherBlox Daily Observations layout. Learn more.

Left ArrowRight Arrow

Hourly Observations for November 26, 2020

Temp ( °F °C ) Dew Point ( °F °C ) Humidity (%) Winds ( mph kmh ) Pressure ( in mb ) Visibility ( mi km ) Precip ( " mm )
12:15 am 00:15 Cloudy 50 10 46 8 88 88 S 7 11 30.1 1019 10 16.0934 0 0
12:35 am 00:35 Cloudy 50 10 46 8 88 88 S 6 9 30.1 1019 10 16.0934 0 0
12:55 am 00:55 Cloudy 52 11 46 8 82 82 S 7 11 30.08 1019 10 16.0934 0 0
1:15 am 01:15 Cloudy 52 11 46 8 82 82 S 7 11 30.07 1018 10 16.0934 0 0
1:35 am 01:35 Cloudy 52 11 46 8 82 82 S 6 9 30.07 1018 10 16.0934 0 0
1:55 am 01:55 Cloudy 52 11 46 8 82 82 S 3 6 30.06 1018 10 16.0934 0 0
2:15 am 02:15 Cloudy 52 11 48 9 88 88 S 7 11 30.05 1018 7 11.26538 0.02 0.508
2:35 am 02:35 Cloudy 50 10 50 10 100 100 SW 5 7 30.07 1018 7 11.26538 0.05 1.27
2:55 am 02:55 Cloudy 50 10 50 10 100 100 S 5 7 30.06 1018 7 11.26538 0.05 1.27
3:15 am 03:15 Cloudy 50 10 50 10 100 100 S 9 15 30.04 1017 5 8.0467 0.03 0.762
3:35 am 03:35 Cloudy 50 10 50 10 100 100 S 9 15 30.03 1017 7 11.26538 0.04 1.016
3:55 am 03:55 Cloudy 50 10 50 10 100 100 SSE 13 20 30.01 1016 10 16.0934 0.04 1.016
4:15 am 04:15 Cloudy 50 10 50 10 100 100 S 9 15 30.01 1016 10 16.0934 0 0
4:35 am 04:35 Cloudy 50 10 50 10 100 100 S 8 13 30.01 1016 10 16.0934 0 0
4:55 am 04:55 Cloudy 50 10 50 10 100 100 S 8 13 30 1016 10 16.0934 0 0
5:15 am 05:15 Cloudy 50 10 50 10 100 100 SSW 9 15 30.01 1016 10 16.0934 0 0
5:35 am 05:35 Cloudy 50 10 50 10 100 100 S 13 20 30 1016 10 16.0934 0 0
5:55 am 05:55 Cloudy 50 10 50 10 100 100 S 12 19 29.99 1015 10 16.0934 0 0
6:15 am 06:15 Cloudy 50 10 50 10 100 100 SW 8 13 30.01 1016 10 16.0934 0 0
6:35 am 06:35 Cloudy 50 10 50 10 100 100 SSW 10 17 30.01 1016 10 16.0934 0 0
6:55 am 06:55 Cloudy 50 10 50 10 100 100 S 8 13 30.01 1016 10 16.0934 0 0
7:15 am 07:15 Cloudy 50 10 50 10 100 100 SSW 6 9 30.01 1016 10 16.0934 0 0
7:35 am 07:35 Cloudy 50 10 50 10 100 100 NNE 3 6 30.03 1017 7 11.26538 0 0
7:55 am 07:55 Cloudy 50 10 50 10 100 100 WNW 6 9 30.04 1017 7 11.26538 0 0
8:15 am 08:15 Cloudy 52 11 52 11 100 100 WSW 9 15 30.03 1017 7 11.26538 0 0
8:35 am 08:35 Partly Cloudy 52 11 52 11 100 100 SW 7 11 30.03 1017 10 16.0934 0 0
8:55 am 08:55 Partly Cloudy 54 12 54 12 100 100 SW 7 11 30.04 1017 10 16.0934 0 0
9:15 am 09:15 Cloudy 54 12 54 12 100 100 SW 8 13 30.04 1017 10 16.0934 0 0
9:35 am 09:35 Cloudy 55 13 54 12 94 94 SW 8 13 30.04 1017 10 16.0934 0 0
9:55 am 09:55 Cloudy 55 13 54 12 94 94 WSW 5 7 30.05 1018 10 16.0934 0 0
10:15 am 10:15 Mostly Cloudy 55 13 54 12 94 94 Calm 30.05 1018 10 16.0934 0 0
10:35 am 10:35 Mostly Cloudy 55 13 54 12 94 94 Calm 30.05 1018 10 16.0934 0 0
10:55 am 10:55 Partly Cloudy 57 14 54 12 88 88 Calm 30.05 1018 10 16.0934 0 0
11:15 am 11:15 Partly Cloudy 59 15 54 12 82 82 Calm 30.03 1017 10 16.0934 0 0
11:35 am 11:35 Sunny 61 16 54 12 77 77 NW 3 6 30.02 1016 10 16.0934 0 0
11:55 am 11:55 Sunny 61 16 54 12 77 77 NNW 5 7 30.02 1016 10 16.0934 0 0
12:15 pm 12:15 Sunny 63 17 54 12 73 73 WNW 8 13 30.02 1016 10 16.0934 0 0
12:35 pm 12:35 Sunny 64 18 52 11 64 64 NNW 6 9 30 1016 10 16.0934 0 0
12:55 pm 12:55 Partly Cloudy 64 18 52 11 64 64 Calm 30 1016 10 16.0934 0 0
1:15 pm 13:15 Partly Cloudy 64 18 52 11 64 64 NW 13 20 29.99 1016 10 16.0934 0 0
1:35 pm 13:35 Sunny 64 18 52 11 64 64 NW 8 13 29.99 1016 10 16.0934 0 0
1:55 pm 13:55 Partly Cloudy 64 18 52 11 64 64 W 7 11 29.99 1016 10 16.0934 0 0
2:15 pm 14:15 Partly Cloudy 66 19 52 11 60 60 NW 7 11 29.99 1016 10 16.0934 0 0
2:35 pm 14:35 Partly Cloudy 66 19 50 10 56 56 NW 9 15 29.99 1016 10 16.0934 0 0
2:55 pm 14:55 Partly Cloudy 64 18 50 10 60 60 NW 12 19 29.99 1016 10 16.0934 0 0
3:15 pm 15:15 Sunny 64 18 50 10 60 60 NNW 9 15 29.99 1016 10 16.0934 0 0
3:35 pm 15:35 Sunny 64 18 48 9 56 56 N 12 19 30 1016 10 16.0934 0 0
3:55 pm 15:55 Sunny 63 17 48 9 59 59 N 9 15 30.02 1016 10 16.0934 0 0
4:15 pm 16:15 Sunny 63 17 46 8 56 56 N 9 15 30.03 1017 10 16.0934 0 0
4:35 pm 16:35 Sunny 61 16 46 8 59 59 NNE 5 7 30.03 1017 10 16.0934 0 0
4:55 pm 16:55 Clear 61 16 46 8 59 59 N 6 9 30.04 1017 10 16.0934 0 0
5:15 pm 17:15 Clear 59 15 46 8 63 63 N 7 11 30.05 1018 10 16.0934 0 0
5:35 pm 17:35 Clear 59 15 46 8 63 63 N 5 7 30.05 1018 10 16.0934 0 0
5:55 pm 17:55 Clear 57 14 45 7 63 63 N 3 6 30.06 1018 10 16.0934 0 0
6:15 pm 18:15 Clear 57 14 45 7 63 63 N 6 9 30.07 1018 10 16.0934 0 0
6:35 pm 18:35 Clear 57 14 45 7 63 63 NNE 3 6 30.08 1019 10 16.0934 0 0
6:55 pm 18:55 Clear 57 14 45 7 63 63 N 5 7 30.08 1019 10 16.0934 0 0
7:15 pm 19:15 Clear 55 13 45 7 67 67 N 5 7 30.08 1019 10 16.0934 0 0
7:35 pm 19:35 Clear 55 13 45 7 67 67 N 5 7 30.08 1019 10 16.0934 0 0
7:55 pm 19:55 Clear 55 13 45 7 67 67 NNE 3 6 30.09 1019 10 16.0934 0 0
8:15 pm 20:15 Clear 54 12 45 7 72 72 N 5 7 30.09 1019 10 16.0934 0 0
8:35 pm 20:35 Clear 54 12 45 7 72 72 Calm 30.09 1019 10 16.0934 0 0
8:55 pm 20:55 Clear 54 12 45 7 72 72 NE 3 6 30.1 1019 10 16.0934 0 0
9:15 pm 21:15 Clear 52 11 43 6 72 72 NNE 5 7 30.1 1019 10 16.0934 0 0
9:35 pm 21:35 Clear 54 12 43 6 67 67 NNE 5 7 30.1 1019 10 16.0934 0 0
9:55 pm 21:55 Clear 48 9 43 6 82 82 NNE 3 6 30.11 1020 10 16.0934 0 0
10:15 pm 22:15 Partly Cloudy 46 8 45 7 93 93 Calm 30.11 1020 10 16.0934 0 0
10:35 pm 22:35 Partly Cloudy 46 8 43 6 87 87 Calm 30.12 1020 10 16.0934 0 0
10:55 pm 22:55 Partly Cloudy 46 8 43 6 87 87 Calm 30.11 1020 10 16.0934 0 0
11:15 pm 23:15 Mostly Cloudy 46 8 43 6 87 87 Calm 30.11 1020 10 16.0934 0 0
11:35 pm 23:35 Mostly Cloudy 45 7 43 6 93 93 Calm 30.12 1020 10 16.0934 0 0
11:55 pm 23:55 Mostly Cloudy 45 7 43 6 93 93 NNW 3 6 30.12 1020 10 16.0934 0 0

Powered by AerisWeather